Photometre #253[Standard_N] Modena AOT

File : 20210609_253.hum

09/06/2021,04:29:57,TEMP=17.3,BA=5.00,STAT.A
09/06/2021,04:33:52,TEMP=17.4,BA=5.04,STAT.A
09/06/2021,04:38:25,TEMP=17.5,BA=5.04,STAT.A
09/06/2021,04:43:46,TEMP=17.6,BA=5.04,STAT.A
09/06/2021,04:50:10,TEMP=17.8,BA=5.12,STAT.A
09/06/2021,04:57:58,TEMP=18.0,BA=5.12,STAT.A
09/06/2021,05:07:42,TEMP=18.3,BA=5.16,STAT.B
09/06/2021,05:12:18,TEMP=18.5,BA=5.20,STAT.A
09/06/2021,05:17:24,TEMP=18.7,BA=5.20,STAT.A
09/06/2021,05:23:07,TEMP=18.9,BA=5.20,STAT.A
09/06/2021,05:29:32,TEMP=19.1,BA=5.20,STAT.A
09/06/2021,05:36:50,TEMP=19.3,BA=5.20,STAT.C
09/06/2021,05:45:13,TEMP=19.6,BA=5.24,STAT.A
09/06/2021,05:55:53,TEMP=20.1,BA=5.24,STAT.A
09/06/2021,06:06:23,TEMP=20.6,BA=5.24,STAT.A
09/06/2021,06:20:00,TEMP=21.2,BA=5.24,STAT.A
09/06/2021,06:36:43,TEMP=22.1,BA=5.28,STAT.B
09/06/2021,07:10:38,TEMP=24.4,BA=5.32,STAT.B
09/06/2021,07:10:58,TEMP=24.4,BA=5.32,STAT.s
09/06/2021,07:15:40,TEMP=24.5,BA=5.32,STAT.E
09/06/2021,07:16:43,TEMP=24.5,BA=5.32,STAT.s
09/06/2021,07:30:40,TEMP=24.9,BA=5.36,STAT.D
09/06/2021,07:31:44,TEMP=24.9,BA=5.36,STAT.s
09/06/2021,07:45:39,TEMP=25.0,BA=5.36,STAT.D
09/06/2021,07:46:11,TEMP=25.0,BA=5.36,STAT.s
09/06/2021,08:00:39,TEMP=25.0,BA=5.36,STAT.D
09/06/2021,08:01:11,TEMP=25.0,BA=5.36,STAT.s
09/06/2021,08:15:39,TEMP=25.7,BA=5.40,STAT.E
09/06/2021,08:16:12,TEMP=25.7,BA=5.40,STAT.s
09/06/2021,08:30:39,TEMP=25.5,BA=5.40,STAT.D
09/06/2021,08:31:11,TEMP=25.5,BA=5.40,STAT.s
09/06/2021,08:45:39,TEMP=25.9,BA=5.40,STAT.D
09/06/2021,09:00:39,TEMP=27.0,BA=5.40,STAT.D
09/06/2021,09:15:39,TEMP=27.6,BA=5.44,STAT.F
09/06/2021,09:18:20,TEMP=27.7,BA=5.44,STAT.s
09/06/2021,09:30:40,TEMP=28.2,BA=5.40,STAT.D
09/06/2021,09:45:40,TEMP=28.4,BA=5.40,STAT.D
09/06/2021,10:00:40,TEMP=28.8,BA=5.40,STAT.D
09/06/2021,10:15:40,TEMP=29.5,BA=5.40,STAT.F
09/06/2021,10:30:40,TEMP=30.6,BA=5.40,STAT.D
09/06/2021,10:45:40,TEMP=30.6,BA=5.40,STAT.D
09/06/2021,11:00:40,TEMP=30.7,BA=5.40,STAT.D
09/06/2021,11:15:40,TEMP=31.2,BA=5.40,STAT.E
09/06/2021,11:30:40,TEMP=31.4,BA=5.40,STAT.D
09/06/2021,11:45:40,TEMP=31.8,BA=5.40,STAT.D
09/06/2021,12:00:40,TEMP=31.9,BA=5.40,STAT.D
09/06/2021,12:15:40,TEMP=32.5,BA=5.36,STAT.F
09/06/2021,12:30:40,TEMP=33.3,BA=5.36,STAT.D
09/06/2021,12:45:40,TEMP=33.9,BA=5.36,STAT.D
09/06/2021,13:00:40,TEMP=34.5,BA=5.36,STAT.D
09/06/2021,13:15:40,TEMP=33.9,BA=5.36,STAT.F
09/06/2021,13:30:39,TEMP=34.6,BA=5.32,STAT.D
09/06/2021,13:45:39,TEMP=33.7,BA=5.36,STAT.D
09/06/2021,14:00:38,TEMP=34.0,BA=5.32,STAT.D
09/06/2021,14:15:39,TEMP=32.4,BA=5.36,STAT.E
09/06/2021,14:30:39,TEMP=32.6,BA=5.36,STAT.D
09/06/2021,14:45:38,TEMP=32.7,BA=5.32,STAT.D
09/06/2021,15:00:38,TEMP=32.3,BA=5.36,STAT.D
09/06/2021,15:15:38,TEMP=32.2,BA=5.36,STAT.E
09/06/2021,15:20:40,TEMP=32.0,BA=5.36,STAT.B
09/06/2021,15:54:35,TEMP=32.4,BA=5.36,STAT.B
09/06/2021,16:11:18,TEMP=31.3,BA=5.36,STAT.A
09/06/2021,16:24:58,TEMP=30.3,BA=5.32,STAT.A
09/06/2021,16:36:22,TEMP=29.4,BA=5.28,STAT.A
09/06/2021,16:46:04,TEMP=28.9,BA=5.28,STAT.A
09/06/2021,16:54:27,TEMP=28.6,BA=5.24,STAT.C
09/06/2021,17:05:29,TEMP=28.6,BA=5.24,STAT.A
09/06/2021,17:08:11,TEMP=28.5,BA=5.24,STAT.A
09/06/2021,17:13:53,TEMP=28.3,BA=5.20,STAT.A
09/06/2021,17:18:59,TEMP=28.1,BA=5.20,STAT.A
09/06/2021,17:23:35,TEMP=28.0,BA=5.20,STAT.B
09/06/2021,17:33:19,TEMP=27.9,BA=5.20,STAT.A
09/06/2021,17:41:07,TEMP=27.8,BA=5.20,STAT.A
09/06/2021,17:47:30,TEMP=27.6,BA=5.20,STAT.A
09/06/2021,17:52:51,TEMP=27.5,BA=5.20,STAT.A
09/06/2021,17:57:24,TEMP=27.4,BA=5.20,STAT.A
09/06/2021,18:01:20,TEMP=27.2,BA=5.16,STAT.A